Weather History for Andover, NJ

Change the Weather History Date:

Wednesday, January 1, 2014

  Actual Average (KFWN) Record (KFWN)
Temperature  
Mean Temperature 22 °F -  
Max Temperature 30 °F 37 °F 62 °F (1973)
Min Temperature 14 °F 15 °F -12 °F (1964)
Degree Days  
Heating Degree Days 43    
Moisture  
Dew Point 15 °F    
Average Humidity 70    
Maximum Humidity 88    
Minimum Humidity 58    
Precipitation  
Precipitation 0.00 in - - ()
Sea Level Pressure  
Sea Level Pressure 30.36 in    
Wind  
Wind Speed 1 mph (NNE)    
Max Wind Speed 8 mph    
Max Gust Speed -    
Averages and records for this station are not official NWS values.
T = Trace of Precipitation, MM = Missing Value Source: NWS Daily Summary

Daily Weather History Graph

Daily Weather History Graph

Search for Another Location

Airport:

Trip Planner

Search our weather history database for the weather conditions in past years. The results will help you decide how hot, cold, wet, or windy it might be!

Date:

Astronomy

Jan. 01, 2014 Rise Set
Actual Time 7:23 AM EST 4:41 PM EST
Civil Twilight 6:52 AM EST 5:12 PM EST
Nautical Twilight 6:18 AM EST 5:46 PM EST
Astronomical Twilight 5:45 AM EST 6:20 PM EST
Moon 7:11 AM EST (1/1) 5:24 PM EST (1/1)
Length of Visible Light 10h 19m
Length of Day
9h 17m
New Moon, 0% of the Moon is Illuminated
Jan 1
New Moon
Jan 7
First Quarter
Jan 15
Full
Jan 24
Last Quarter
Jan 30
New

Hourly Weather History & Observations

Time (EST) Temp. Windchill Dew Point Humidity Pressure Visibility Wind Dir Wind Speed Gust Speed Precip Events Conditions
12:54 AM 19.0 °F - 7.0 °F 59% 30.32 in - Calm Calm - N/A   Unknown
1:54 AM 19.0 °F 13.9 °F 7.0 °F 59% 30.33 in - SSW 3.5 mph - N/A   Unknown
2:54 AM 19.0 °F - 8.1 °F 62% 30.35 in - Calm Calm - N/A   Unknown
3:54 AM 16.0 °F - 9.0 °F 74% 30.36 in - Calm Calm - N/A   Unknown
4:54 AM 16.0 °F - 10.9 °F 81% 30.37 in - Calm Calm - N/A   Unknown
5:54 AM 15.1 °F - 10.0 °F 80% 30.38 in - Calm Calm - N/A   Unknown
6:54 AM 14.0 °F - 9.0 °F 80% 30.40 in - Calm Calm - N/A   Unknown
7:54 AM 14.0 °F - 10.9 °F 88% 30.41 in - Calm Calm - N/A   Unknown
8:54 AM 18.0 °F - 12.9 °F 81% 30.42 in - Calm Calm - N/A   Unknown
9:54 AM 23.0 °F - 15.1 °F 72% 30.43 in - Calm Calm - N/A   Unknown
10:54 AM 26.1 °F 17.6 °F 12.9 °F 58% 30.41 in - NW 8.1 mph - N/A   Unknown
11:54 AM 28.0 °F - 15.1 °F 58% 30.39 in - Calm Calm - N/A   Unknown
12:54 PM 28.0 °F 21.7 °F 16.0 °F 61% 30.37 in - Variable 5.8 mph - N/A   Unknown
1:54 PM 28.9 °F 23.9 °F 17.1 °F 61% 30.36 in - SSW 4.6 mph - N/A   Unknown
2:54 PM 30.0 °F 26.5 °F 17.1 °F 59% 30.34 in - SW 3.5 mph - N/A   Unknown
3:54 PM 30.0 °F - 18.0 °F 61% 30.35 in - Calm Calm - N/A   Unknown
4:54 PM 28.9 °F - 19.0 °F 67% 30.34 in - Calm Calm - N/A   Unknown
5:54 PM 28.9 °F - 19.9 °F 69% 30.34 in - Calm Calm - N/A   Unknown
6:54 PM 27.0 °F - 19.9 °F 75% 30.35 in - Calm Calm - N/A   Unknown
7:54 PM 28.0 °F 24.2 °F 19.0 °F 69% 30.35 in - NNE 3.5 mph - N/A   Unknown
8:54 PM 27.0 °F 20.5 °F 19.0 °F 72% 30.33 in - NE 5.8 mph - N/A   Unknown
9:54 PM 27.0 °F 20.5 °F 19.9 °F 75% 30.30 in - NE 5.8 mph - N/A   Unknown
10:54 PM 27.0 °F 20.5 °F 19.9 °F 75% 30.29 in - NE 5.8 mph - N/A   Unknown
11:54 PM 26.1 °F - 19.9 °F 78% 30.27 in - Calm Calm - N/A   Unknown